DL3MEB-6 Weather Reports


Display with metric or nautical units.
time (UTC)temp
F
wind
direction
speed
MPH
gust
MPH
rain 1hr
in
rain 24hr
in
rain mn
in
humidity
%
barometer
mb
20260506133548 70 32 6.0 6.0 0.00 0.00 0.00 48 1002.5
20260506133517 70 32 6.0 6.0 0.00 0.00 0.00 48 1002.5
20260506132011 69 8 6.0 6.0 0.00 0.00 0.00 51 1002.8
20260506130505 68 343 6.0 6.0 0.00 0.00 0.00 50 1003.0
20260506124952 69 28 4.0 7.0 0.00 0.00 0.00 50 1003.1
20260506123443 69 0 3.0 3.0 0.00 0.00 0.00 49 1003.1
20260506121941 69 102 4.0 4.0 0.00 0.00 0.00 52 1003.6
20260506120431 68 14 1.0 5.0 0.00 0.00 0.00 52 1003.6
20260506114920 68 76 4.0 6.0 0.00 0.00 0.00 51 1003.7
20260506113424 67 69 3.0 4.0 0.00 0.00 0.00 50 1004.0
20260506113419 67 69 3.0 4.0 0.00 0.00 0.00 50 1004.0
20260506111920 67 79 1.0 2.0 0.00 0.00 0.00 51 1004.1
20260506110418 67 352 6.0 6.0 0.00 0.00 0.00 50 1004.1
20260506104913 66 4 4.0 5.0 0.00 0.00 0.00 49 1004.6
20260506103401 66 0 1.0 5.0 0.00 0.00 0.00 55 1004.8
20260506101857 66 356 2.0 4.0 0.00 0.00 0.00 54 1004.8
20260506100358 66 0 6.0 6.0 0.00 0.00 0.00 55 1005.1
20260506094851 65 1 1.0 1.0 0.00 0.00 0.00 58 1004.9
20260506093340 64 59 4.0 4.0 0.00 0.00 0.00 58 1005.0
20260506091834 64 20 2.0 2.0 0.00 0.00 0.00 58 1005.0
20260506090325 63 16 4.0 4.0 0.00 0.00 0.00 59 1005.0
20260506084824 63 97 1.0 4.0 0.00 0.00 0.00 60 1005.2
20260506083319 62 62 1.0 1.0 0.00 0.00 0.00 61 1005.3
20260506081816 61 344 3.0 5.0 0.00 0.00 0.00 62 1005.4
20260506080308 60 239 2.0 2.0 0.00 0.00 0.00 62 1005.5
20260506073305 58 277 1.0 1.0 0.00 0.00 0.00 69 1006.0
20260506071759 57 330 0.0 1.0 0.00 0.00 0.00 74 1006.0
20260506070251 55 247 2.0 5.0 0.00 0.00 0.00 81 1006.0
20260506061734 53 213 0.0 0.0 0.00 0.00 0.00 94 1006.2
20260506060231 52 213 0.0 0.0 0.00 0.00 0.00 94 1006.3
20260506050208 50 212 0.0 0.0 0.00 0.00 0.00 93 1006.4
20260506044703 49 212 0.0 0.0 0.00 0.00 0.00 92 1006.5
20260506043202 49 200 0.0 0.0 0.00 0.00 0.00 92 1006.7
20260506041702 49 200 0.0 0.0 0.00 0.00 0.00 92 1006.8
20260506040156 49 215 0.0 0.0 0.00 0.00 0.00 91 1006.8
20260506034649 49 213 0.0 0.0 0.00 0.00 0.00 91 1006.8
20260506033142 50 213 0.0 0.0 0.00 0.00 0.00 91 1006.9
20260506031635 50 215 0.0 0.0 0.00 0.00 0.00 91 1007.0
20260506030136 50 213 0.0 0.0 0.00 0.00 0.00 91 1007.0
20260506024625 50 213 0.0 0.0 0.00 0.00 0.00 90 1007.0
20260506023118 51 215 0.0 0.0 0.00 0.00 0.00 90 1006.8
20260506021611 51 215 0.0 0.0 0.00 0.00 0.00 89 1006.6
20260506020104 51 215 0.0 0.0 0.00 0.00 0.00 89 1006.5
20260506014551 52 215 0.0 0.0 0.00 0.00 0.00 88 1006.7
20260506013050 52 215 0.0 0.0 0.00 0.00 0.00 88 1006.9
20260506011549 53 215 0.0 1.0 0.00 0.00 0.00 88 1006.7
20260506010043 53 215 2.0 2.0 0.00 0.00 0.00 88 1006.5
20260506004534 53 215 0.0 2.0 0.00 0.00 0.00 87 1006.7
20260506003023 54 215 1.0 2.0 0.00 0.00 0.00 86 1006.8
20260506001513 54 215 0.0 1.0 0.00 0.00 0.00 85 1006.7
20260506000014 55 215 0.0 1.0 0.00 0.00 0.00 84 1006.8
20260505234504 55 215 0.0 5.0 0.00 0.00 0.00 84 1006.9
20260505232957 56 192 1.0 2.0 0.00 0.00 0.00 82 1007.0
20260505231450 56 172 2.0 2.0 0.00 0.00 0.00 81 1007.0
20260505225940 57 185 2.0 4.0 0.00 0.00 0.00 83 1007.2
20260505224429 57 200 4.0 6.0 0.00 0.00 0.00 84 1007.1
20260505222921 58 200 5.0 5.0 0.00 0.00 0.00 84 1006.9
20260505221421 58 230 2.0 5.0 0.00 0.00 0.00 83 1007.0
20260505215910 59 217 1.0 2.0 0.00 0.00 0.00 79 1007.0
20260505214409 59 240 6.0 6.0 0.00 0.00 0.00 76 1007.0
20260505212908 59 222 5.0 6.0 0.00 0.00 0.00 73 1007.2
20260505211408 59 240 6.0 8.0 0.00 0.00 0.00 72 1007.3
20260505205858 59 237 4.0 6.0 0.00 0.00 0.00 72 1007.2
20260505204350 59 215 5.0 6.0 0.00 0.00 0.00 70 1007.2
20260505202843 59 237 6.0 6.0 0.00 0.00 0.00 70 1006.9
20260505201329 59 239 6.0 6.0 0.00 0.00 0.00 70 1006.8
20260505195818 60 224 6.0 6.0 0.00 0.00 0.00 69 1006.3
20260505194314 60 217 5.0 8.0 0.00 0.00 0.00 68 6.0
20260505194310 60 217 5.0 8.0 0.00 0.00 0.00 68 1006.0
20260505192809 60 316 1.0 2.0 0.00 0.00 0.00 67 1005.2
20260505191301 60 319 1.0 2.0 0.00 0.00 0.00 66 1005.5
20260505185751 61 337 0.0 2.0 0.00 0.00 0.00 65 1005.3
20260505184245 61 274 3.0 4.0 0.00 0.00 0.00 64 1005.5
20260505182737 61 268 6.0 7.0 0.00 0.00 0.00 62 1005.4
20260505181231 63 258 8.0 8.0 0.00 0.00 0.00 61 1005.4
20260505175719 64 265 6.0 11.0 0.00 0.00 0.00 58 1005.2
20260505174210 66 258 2.0 6.0 0.00 0.00 0.00 54 1005.0
20260505172703 65 268 2.0 4.0 0.00 0.00 0.00 58 1004.9
20260505171156 65 251 0.0 5.0 0.00 0.00 0.00 59 1005.1
20260505165643 65 292 5.0 5.0 0.00 0.00 0.00 59 1005.1
20260505164143 64 346 5.0 6.0 0.00 0.00 0.00 62 1005.2
20260505162632 64 302 5.0 5.0 0.00 0.00 0.00 67 1005.3
20260505161129 65 109 0.0 1.0 0.00 0.00 0.00 69 1005.3
20260505152609 66 181 5.0 10.0 0.00 0.00 0.00 60 1005.1
20260505151103 68 226 4.0 6.0 0.00 0.00 0.00 56 1004.7